STARLINK-6111, 57102

Orbit data source: Space-Track

STARLINK-6111, 57102 is a payload satellite owned by SpaceX/Seattle (US) in LEO that was launched on Fri, 23 Jun 2023 UTC via an FALCON 9 launch vehicle from the Air Force Eastern Test Range (AFETR). Payload-class satellites include a variety of spacecraft equipped with specific instruments for various scientific and technological missions. These include communications satellites like Starlink; space stations such as the ISS; scientific satellites like the Hubble; Earth observation satellites from companies like Planet Labs, Umbra, and HawkEye 360; GPS; miniature CubeSats for education and research; and military/defense satellites.

Loading next visibility...
Identifier
57102, 2023-090B
Orbit
LEO
Country
Flag of USUS
Related business
Manufacturer
SpaceX/Seattle
Mission
Operational Commercial Communications
Bus & Motor
STARLINK, Unknown motor
Mass
305 kg wet, ~290 kg dry
Launch date (UTC)
2023-06-23 (3 years ago)
Launch vehicle
FALCON 9
Launch site
Air Force Eastern Test Range (AFETR)
Object type
Payload
Rocket body
Debris
Shape & HBR
Box + 1 Pan, 10.1 m
Radar Cross Section
11.087 m², Large (>1 m²)

Expand to show TLE details & history
Last TLE update: 2 days ago

TLE from 2 days ago
0 STARLINK-6111
1 57102U 23090B   26171.10557173  .00000466  00000-0  26472-4 0  9996
2 57102  43.0055  63.3363 0001837 255.3168 104.7480 15.27578021165999
Epoch: 2026-06-20T02:32Z
TLE epoch observation values (Epoch: 2026-06-20T02:32:01.397Z)
Latitude
-0.00003°
Longitude
117.00548°
Altitude
483.152 km
Speed
7.625 km/s
True Right ascension
04h 13m 20s
True Declination
0° 00' 00"
Sunlit
Object was in daylight at epoch
Visualization orbit readout
Latitude
Unknown
Longitude
Unknown
Altitude
Unknown
Speed
Unknown
Apparent Right ascension
Unknown
Apparent Declination
Unknown
Sunlit
N/A
Visualization observer readout
Local Sidereal Time
00:39:15
Azimuth
Unknown
Elevation
Unknown
Doppler factor
Unknown
Orbital elements
Apogee altitude
486.26 km
Perigee altitude
483.739 km
Semi-major axis
6,863.136 km
Eccentricity
0.00018
Inclination
43.0055°
RAAN
63.3363°
Arg. of periapsis
255.3168°
True anomaly
104.76836°
Mean anomaly
104.748°
Eccentric anomaly
104.75818°
Mean motion
3.81733 °/min
Orbital period
94.31 mins
BSTAR
0.000026472
Loading maneuver chart data...
Computing Atmospheric mass density...
Loading historical data...
Loading historical data...
Loading historical data...
Loading historical data...
Loading historical data...
Loading historical data...
Loading historical data...

Documentation

Showing up to 5 results
|